Location: Newark
(63.1158°N, 8.1461°E)
Time: 00:17:21
(UTC+00:00)

Envisat - Pass Details

Date: 11 December 2019
Orbit: 764 x 766 km, 98.1° (Epoch: 18 January)

Event Time Altitude Azimuth Distance (km) Brightness Sun altitude
Rises 07:16:17 0° 18° (NNE) 3,251 6.1 -8.4°
Reaches altitude 10° 07:18:36 10° 17° (NNE) 2,320 5.3 -8.2°
Maximum altitude 07:23:42 70° 295° (WNW) 819 3.0 -7.8°
Drops below altitude 10° 07:28:45 10° 212° (SSW) 2,306 5.6 -7.3°
Sets 07:31:03 0° 210° (SSW) 3,228 6.3 -7.1°
